Time,TemperatureF,DewpointF,PressureIn,WindDirection,WindDirectionDegrees,WindSpeedMPH,WindSpeedGustMPH,Humidity,HourlyPrecipIn,Conditions,Clouds,dailyrainin,SoftwareType,DateUTC
2013-02-19 00:01:00,23.0,5.0,30.18,ESE,115,0.0,0.0,46,0.00,,,0.00,,2013-02-19 07:01:00,
2013-02-19 00:11:00,23.0,5.0,30.18,ESE,115,0.0,0.0,46,0.00,,,0.00,,2013-02-19 07:11:00,
2013-02-19 00:22:00,22.0,5.0,30.17,ESE,115,0.0,0.0,47,0.00,,,0.00,,2013-02-19 07:22:00,
2013-02-19 00:32:00,22.0,5.0,30.18,ESE,115,0.0,0.0,47,0.00,,,0.00,,2013-02-19 07:32:00,
2013-02-19 00:42:00,22.0,5.0,30.18,ESE,115,0.0,0.0,47,0.00,,,0.00,,2013-02-19 07:42:00,
2013-02-19 00:52:00,21.0,5.0,30.18,ESE,115,0.0,0.0,49,0.00,,,0.00,,2013-02-19 07:52:00,
2013-02-19 01:02:00,21.0,5.0,30.17,ESE,115,0.0,0.0,50,0.00,,,0.00,,2013-02-19 08:02:00,
2013-02-19 01:11:00,21.0,5.0,30.17,ESE,115,0.0,0.0,50,0.00,,,0.00,,2013-02-19 08:11:00,
2013-02-19 01:21:00,20.0,5.0,30.17,ESE,115,0.0,0.0,51,0.00,,,0.00,,2013-02-19 08:21:00,
2013-02-19 01:31:00,19.0,5.0,30.17,ESE,115,0.0,0.0,53,0.00,,,0.00,,2013-02-19 08:31:00,
2013-02-19 01:42:00,19.0,5.0,30.17,ESE,115,0.0,0.0,53,0.00,,,0.00,,2013-02-19 08:42:00,
2013-02-19 01:52:00,19.0,5.0,30.17,ESE,115,0.0,0.0,54,0.00,,,0.00,,2013-02-19 08:52:00,
2013-02-19 02:01:00,19.0,6.0,30.16,ESE,115,0.0,0.0,55,0.00,,,0.00,,2013-02-19 09:01:00,
2013-02-19 02:11:00,19.0,6.0,30.16,ESE,115,0.0,0.0,55,0.00,,,0.00,,2013-02-19 09:11:00,
2013-02-19 02:22:00,18.0,5.0,30.17,ESE,115,0.0,0.0,57,0.00,,,0.00,,2013-02-19 09:22:00,
2013-02-19 02:32:00,18.0,5.0,30.17,ESE,115,0.0,0.0,57,0.00,,,0.00,,2013-02-19 09:32:00,
2013-02-19 02:42:00,18.0,5.0,30.17,ESE,115,0.0,0.0,57,0.00,,,0.00,,2013-02-19 09:42:00,
2013-02-19 02:52:00,17.0,4.0,30.16,ESE,115,0.0,0.0,57,0.00,,,0.00,,2013-02-19 09:52:00,
2013-02-19 03:02:00,17.0,5.0,30.16,ESE,115,0.0,0.0,58,0.00,,,0.00,,2013-02-19 10:02:00,
2013-02-19 03:11:00,17.0,5.0,30.16,ESE,115,0.0,0.0,58,0.00,,,0.00,,2013-02-19 10:11:00,
2013-02-19 03:21:00,17.0,5.0,30.16,ESE,115,0.0,0.0,58,0.00,,,0.00,,2013-02-19 10:21:00,
2013-02-19 03:32:00,18.0,6.0,30.15,ESE,115,0.0,0.0,58,0.00,,,0.00,,2013-02-19 10:32:00,
2013-02-19 03:42:00,18.0,6.0,30.15,ESE,115,0.0,0.0,58,0.00,,,0.00,,2013-02-19 10:42:00,
2013-02-19 03:51:00,18.0,6.0,30.15,ESE,115,0.0,0.0,59,0.00,,,0.00,,2013-02-19 10:51:00,
2013-02-19 04:01:00,18.0,6.0,30.15,ESE,115,0.0,0.0,60,0.00,,,0.00,,2013-02-19 11:01:00,
2013-02-19 04:11:00,18.0,6.0,30.15,ESE,115,0.0,0.0,60,0.00,,,0.00,,2013-02-19 11:11:00,
2013-02-19 04:22:00,18.0,6.0,30.15,ESE,115,0.0,0.0,60,0.00,,,0.00,,2013-02-19 11:22:00,
2013-02-19 04:32:00,17.0,6.0,30.16,ESE,115,0.0,0.0,62,0.00,,,0.00,,2013-02-19 11:32:00,
2013-02-19 04:42:00,17.0,6.0,30.16,ESE,115,0.0,0.0,62,0.00,,,0.00,,2013-02-19 11:42:00,
2013-02-19 04:52:00,18.0,7.0,30.16,ESE,115,0.0,0.0,62,0.00,,,0.00,,2013-02-19 11:52:00,
2013-02-19 05:02:00,18.0,8.0,30.15,ESE,115,0.0,0.0,63,0.00,,,0.00,,2013-02-19 12:02:00,
2013-02-19 05:12:00,18.0,8.0,30.15,ESE,115,0.0,0.0,63,0.00,,,0.00,,2013-02-19 12:12:00,
2013-02-19 05:22:00,17.0,7.0,30.15,ESE,115,0.0,0.0,63,0.00,,,0.00,,2013-02-19 12:22:00,
2013-02-19 05:32:00,17.0,7.0,30.15,ESE,115,0.0,0.0,64,0.00,,,0.00,,2013-02-19 12:32:00,
2013-02-19 05:42:00,17.0,7.0,30.15,ESE,115,0.0,0.0,64,0.00,,,0.00,,2013-02-19 12:42:00,
2013-02-19 05:52:00,17.0,7.0,30.15,SE,133,0.0,0.0,63,0.00,,,0.00,,2013-02-19 12:52:00,
2013-02-19 06:02:00,18.0,8.0,30.16,SE,133,0.0,0.0,63,0.00,,,0.00,,2013-02-19 13:02:00,
2013-02-19 06:11:00,18.0,8.0,30.16,SE,133,0.0,0.0,63,0.00,,,0.00,,2013-02-19 13:11:00,
2013-02-19 06:22:00,18.0,8.0,30.15,SE,133,0.0,0.0,63,0.00,,,0.00,,2013-02-19 13:22:00,
2013-02-19 06:32:00,18.0,7.0,30.16,SE,133,0.0,0.0,62,0.00,,,0.00,,2013-02-19 13:32:00,
2013-02-19 06:42:00,18.0,7.0,30.16,SE,133,0.0,0.0,62,0.00,,,0.00,,2013-02-19 13:42:00,
2013-02-19 06:52:00,18.0,7.0,30.16,SE,133,0.0,0.0,62,0.00,,,0.00,,2013-02-19 13:52:00,
2013-02-19 07:01:00,18.0,7.0,30.16,SE,133,0.0,0.0,62,0.00,,,0.00,,2013-02-19 14:01:00,
2013-02-19 07:11:00,18.0,7.0,30.16,SE,133,0.0,0.0,62,0.00,,,0.00,,2013-02-19 14:11:00,
2013-02-19 07:21:00,18.0,8.0,30.16,SE,133,0.0,0.0,63,0.00,,,0.00,,2013-02-19 14:21:00,
2013-02-19 07:32:00,18.0,7.0,30.17,SE,133,0.0,0.0,62,0.00,,,0.00,,2013-02-19 14:32:00,
2013-02-19 07:42:00,18.0,7.0,30.17,SE,133,0.0,0.0,62,0.00,,,0.00,,2013-02-19 14:42:00,
2013-02-19 07:52:00,19.0,8.0,30.17,SE,133,0.0,0.0,62,0.00,,,0.00,,2013-02-19 14:52:00,
2013-02-19 08:01:00,20.0,9.0,30.17,SE,133,0.0,0.0,61,0.00,,,0.00,,2013-02-19 15:01:00,
2013-02-19 08:11:00,20.0,9.0,30.17,SE,133,0.0,0.0,61,0.00,,,0.00,,2013-02-19 15:11:00,
2013-02-19 08:21:00,20.0,8.0,30.17,SE,133,0.0,0.0,60,0.00,,,0.00,,2013-02-19 15:21:00,
2013-02-19 08:32:00,21.0,9.0,30.17,SE,134,0.0,0.0,60,0.00,,,0.00,,2013-02-19 15:32:00,
2013-02-19 08:42:00,21.0,9.0,30.17,SE,134,0.0,0.0,60,0.00,,,0.00,,2013-02-19 15:42:00,
2013-02-19 08:52:00,23.0,9.0,30.18,SSE,164,0.0,3.0,55,0.00,,,0.00,,2013-02-19 15:52:00,
2013-02-19 09:02:00,26.0,10.0,30.17,South,169,0.0,0.0,50,0.00,,,0.00,,2013-02-19 16:02:00,
2013-02-19 09:11:00,26.0,10.0,30.17,South,169,0.0,0.0,50,0.00,,,0.00,,2013-02-19 16:11:00,
2013-02-19 09:22:00,26.0,10.0,30.17,South,169,0.0,0.0,50,0.00,,,0.00,,2013-02-19 16:22:00,
2013-02-19 09:32:00,28.0,8.0,30.17,SE,135,0.0,0.0,42,0.00,,,0.00,,2013-02-19 16:32:00,
2013-02-19 09:42:00,28.0,8.0,30.17,SE,135,0.0,0.0,42,0.00,,,0.00,,2013-02-19 16:42:00,
2013-02-19 09:52:00,28.0,8.0,30.17,SSE,155,0.0,0.0,42,0.00,,,0.00,,2013-02-19 16:52:00,
2013-02-19 10:01:00,28.0,8.0,30.16,West,259,0.0,2.0,43,0.00,,,0.00,,2013-02-19 17:01:00,
2013-02-19 10:11:00,28.0,8.0,30.16,West,259,0.0,2.0,43,0.00,,,0.00,,2013-02-19 17:11:00,
2013-02-19 10:21:00,29.0,9.0,30.15,West,259,0.0,0.0,43,0.00,,,0.00,,2013-02-19 17:21:00,
2013-02-19 10:32:00,30.0,9.0,30.15,NNW,348,0.0,3.0,41,0.00,,,0.00,,2013-02-19 17:32:00,
2013-02-19 10:42:00,30.0,9.0,30.15,NNW,348,0.0,3.0,41,0.00,,,0.00,,2013-02-19 17:42:00,
2013-02-19 10:52:00,30.0,9.0,30.15,NNE,13,1.0,4.0,40,0.00,,,0.00,,2013-02-19 17:52:00,
2013-02-19 11:01:00,30.0,9.0,30.14,NNE,32,0.0,3.0,40,0.00,,,0.00,,2013-02-19 18:01:00,
2013-02-19 11:11:00,30.0,9.0,30.14,NNE,32,0.0,3.0,40,0.00,,,0.00,,2013-02-19 18:11:00,
2013-02-19 11:21:00,32.0,11.0,30.14,NNE,26,1.0,6.0,41,0.00,,,0.00,,2013-02-19 18:21:00,
2013-02-19 11:32:00,33.0,11.0,30.13,NE,53,0.0,7.0,39,0.00,,,0.00,,2013-02-19 18:32:00,
2013-02-19 11:42:00,33.0,11.0,30.13,NE,53,0.0,7.0,39,0.00,,,0.00,,2013-02-19 18:42:00,
2013-02-19 11:51:00,34.0,11.0,30.12,North,351,3.0,5.0,38,0.00,,,0.00,,2013-02-19 18:51:00,
2013-02-19 12:01:00,34.0,11.0,30.12,North,351,3.0,5.0,38,0.00,,,0.00,,2013-02-19 19:01:00,
2013-02-19 12:11:00,34.0,11.0,30.12,North,351,3.0,5.0,38,0.00,,,0.00,,2013-02-19 19:11:00,
2013-02-19 12:21:00,35.0,10.0,30.10,NNE,13,1.0,5.0,35,0.00,,,0.00,,2013-02-19 19:21:00,
2013-02-19 12:32:00,34.0,9.0,30.08,SE,132,0.0,5.0,35,0.00,,,0.00,,2013-02-19 19:32:00,
2013-02-19 12:41:00,34.0,9.0,30.08,SE,132,0.0,5.0,35,0.00,,,0.00,,2013-02-19 19:41:00,
2013-02-19 12:51:00,36.0,11.0,30.07,NNE,19,1.0,6.0,35,0.00,,,0.00,,2013-02-19 19:51:00,
2013-02-19 13:01:00,36.0,10.0,30.06,NW,321,1.0,5.0,34,0.00,,,0.00,,2013-02-19 20:01:00,
2013-02-19 13:12:00,36.0,10.0,30.06,NW,321,1.0,5.0,34,0.00,,,0.00,,2013-02-19 20:12:00,
2013-02-19 13:21:00,38.0,11.0,30.05,North,360,1.0,5.0,33,0.00,,,0.00,,2013-02-19 20:21:00,
2013-02-19 13:32:00,39.0,12.0,30.03,NNW,346,2.0,6.0,33,0.00,,,0.00,,2013-02-19 20:32:00,
2013-02-19 13:42:00,39.0,12.0,30.03,NNW,346,2.0,6.0,33,0.00,,,0.00,,2013-02-19 20:42:00,
2013-02-19 13:52:00,38.0,12.0,30.02,North,360,4.0,8.0,34,0.00,,,0.00,,2013-02-19 20:52:00,
2013-02-19 14:02:00,38.0,12.0,30.01,WNW,299,1.0,10.0,34,0.00,,,0.00,,2013-02-19 21:02:00,
2013-02-19 14:11:00,38.0,12.0,30.01,WNW,299,1.0,10.0,34,0.00,,,0.00,,2013-02-19 21:11:00,
2013-02-19 14:21:00,39.0,13.0,30.01,NNE,22,4.0,9.0,34,0.00,,,0.00,,2013-02-19 21:21:00,
2013-02-19 14:32:00,39.0,12.0,30.00,North,9,3.0,11.0,33,0.00,,,0.00,,2013-02-19 21:32:00,
2013-02-19 14:42:00,39.0,12.0,30.00,North,9,3.0,11.0,33,0.00,,,0.00,,2013-02-19 21:42:00,
2013-02-19 14:51:00,39.0,12.0,29.99,NNE,24,3.0,11.0,33,0.00,,,0.00,,2013-02-19 21:51:00,
2013-02-19 15:02:00,40.0,13.0,29.99,North,355,4.0,9.0,32,0.00,,,0.00,,2013-02-19 22:02:00,
2013-02-19 15:11:00,40.0,13.0,29.99,North,355,4.0,9.0,32,0.00,,,0.00,,2013-02-19 22:11:00,
2013-02-19 15:21:00,40.0,13.0,29.99,North,355,4.0,9.0,32,0.00,,,0.00,,2013-02-19 22:21:00,
2013-02-19 15:32:00,40.0,13.0,29.99,North,355,4.0,9.0,32,0.00,,,0.00,,2013-02-19 22:32:00,
2013-02-19 15:52:00,40.0,13.0,29.98,North,5,4.0,10.0,32,0.00,,,0.00,,2013-02-19 22:52:00,
2013-02-19 16:01:00,40.0,13.0,29.98,NW,310,3.0,10.0,33,0.00,,,0.00,,2013-02-19 23:01:00,
2013-02-19 16:11:00,40.0,13.0,29.98,NW,310,3.0,10.0,33,0.00,,,0.00,,2013-02-19 23:11:00,
2013-02-19 16:21:00,40.0,13.0,29.98,NNE,27,2.0,9.0,32,0.00,,,0.00,,2013-02-19 23:21:00,
2013-02-19 16:32:00,40.0,13.0,29.98,North,355,3.0,8.0,33,0.00,,,0.00,,2013-02-19 23:32:00,
2013-02-19 16:42:00,40.0,13.0,29.98,North,355,3.0,8.0,33,0.00,,,0.00,,2013-02-19 23:42:00,
2013-02-19 16:52:00,39.0,13.0,29.97,North,360,6.0,11.0,34,0.00,,,0.00,,2013-02-19 23:52:00,
2013-02-19 17:01:00,39.0,13.0,29.97,NNW,345,2.0,5.0,34,0.00,,,0.00,,2013-02-20 00:01:00,
2013-02-19 17:11:00,39.0,13.0,29.97,NNW,345,2.0,5.0,34,0.00,,,0.00,,2013-02-20 00:11:00,
2013-02-19 17:21:00,38.0,12.0,29.97,North,5,4.0,8.0,34,0.00,,,0.00,,2013-02-20 00:21:00,
2013-02-19 17:32:00,38.0,12.0,29.97,North,360,4.0,9.0,34,0.00,,,0.00,,2013-02-20 00:32:00,
2013-02-19 17:42:00,38.0,12.0,29.97,North,360,4.0,9.0,34,0.00,,,0.00,,2013-02-20 00:42:00,
2013-02-19 17:52:00,38.0,13.0,29.97,North,11,2.0,8.0,35,0.00,,,0.00,,2013-02-20 00:52:00,
2013-02-19 18:02:00,37.0,12.0,29.97,North,360,2.0,8.0,35,0.00,,,0.00,,2013-02-20 01:02:00,
2013-02-19 18:11:00,37.0,12.0,29.97,North,360,2.0,8.0,35,0.00,,,0.00,,2013-02-20 01:11:00,
2013-02-19 18:21:00,37.0,12.0,29.97,NNW,344,2.0,5.0,35,0.00,,,0.00,,2013-02-20 01:21:00,
2013-02-19 18:32:00,37.0,13.0,29.98,NNW,340,0.0,4.0,36,0.00,,,0.00,,2013-02-20 01:32:00,
2013-02-19 18:42:00,37.0,13.0,29.98,NNW,340,0.0,4.0,36,0.00,,,0.00,,2013-02-20 01:42:00,
2013-02-19 18:52:00,37.0,13.0,29.98,NNW,332,0.0,4.0,36,0.00,,,0.00,,2013-02-20 01:52:00,
2013-02-19 19:01:00,36.0,12.0,29.98,WNW,289,0.0,1.0,36,0.00,,,0.00,,2013-02-20 02:01:00,
2013-02-19 19:11:00,36.0,12.0,29.98,WNW,289,0.0,1.0,36,0.00,,,0.00,,2013-02-20 02:11:00,
2013-02-19 19:21:00,36.0,12.0,29.98,WNW,289,0.0,0.0,37,0.00,,,0.00,,2013-02-20 02:21:00,
2013-02-19 19:32:00,36.0,13.0,29.98,WNW,293,0.0,0.0,38,0.00,,,0.00,,2013-02-20 02:32:00,
2013-02-19 19:42:00,36.0,13.0,29.98,WNW,293,0.0,0.0,38,0.00,,,0.00,,2013-02-20 02:42:00,
2013-02-19 19:52:00,35.0,13.0,29.97,WNW,293,0.0,0.0,39,0.00,,,0.00,,2013-02-20 02:52:00,
2013-02-19 20:02:00,35.0,13.0,29.97,WNW,293,0.0,0.0,39,0.00,,,0.00,,2013-02-20 03:02:00,
2013-02-19 20:12:00,35.0,13.0,29.97,WNW,293,0.0,0.0,39,0.00,,,0.00,,2013-02-20 03:12:00,
2013-02-19 20:22:00,34.0,13.0,29.97,WNW,293,0.0,0.0,41,0.00,,,0.00,,2013-02-20 03:22:00,
2013-02-19 20:32:00,34.0,13.0,29.96,WNW,293,0.0,0.0,42,0.00,,,0.00,,2013-02-20 03:32:00,
2013-02-19 20:42:00,34.0,13.0,29.96,WNW,293,0.0,0.0,42,0.00,,,0.00,,2013-02-20 03:42:00,
2013-02-19 20:51:00,33.0,13.0,29.96,WNW,293,0.0,0.0,43,0.00,,,0.00,,2013-02-20 03:51:00,
2013-02-19 21:01:00,33.0,13.0,29.96,WNW,293,0.0,0.0,44,0.00,,,0.00,,2013-02-20 04:01:00,
2013-02-19 21:11:00,33.0,13.0,29.96,WNW,293,0.0,0.0,44,0.00,,,0.00,,2013-02-20 04:11:00,
2013-02-19 21:21:00,33.0,13.0,29.95,WNW,293,0.0,0.0,44,0.00,,,0.00,,2013-02-20 04:21:00,
2013-02-19 21:31:00,32.0,13.0,29.95,WNW,293,0.0,0.0,45,0.00,,,0.00,,2013-02-20 04:31:00,
2013-02-19 21:42:00,32.0,13.0,29.95,WNW,293,0.0,0.0,45,0.00,,,0.00,,2013-02-20 04:42:00,
2013-02-19 21:52:00,32.0,14.0,29.95,WNW,293,0.0,0.0,46,0.00,,,0.00,,2013-02-20 04:52:00,
2013-02-19 22:02:00,32.0,14.0,29.95,WNW,293,0.0,0.0,46,0.00,,,0.00,,2013-02-20 05:02:00,
2013-02-19 22:12:00,32.0,14.0,29.95,WNW,293,0.0,0.0,46,0.00,,,0.00,,2013-02-20 05:12:00,
2013-02-19 22:22:00,31.0,13.0,29.94,WNW,293,0.0,0.0,47,0.00,,,0.00,,2013-02-20 05:22:00,
2013-02-19 22:32:00,32.0,13.0,29.93,WNW,292,0.0,0.0,45,0.00,,,0.00,,2013-02-20 05:32:00,
2013-02-19 22:43:00,32.0,13.0,29.93,WNW,292,0.0,0.0,45,0.00,,,0.00,,2013-02-20 05:43:00,
2013-02-19 22:52:00,32.0,13.0,29.93,WNW,292,0.0,0.0,44,0.00,,,0.00,,2013-02-20 05:52:00,
2013-02-19 23:01:00,32.0,12.0,29.92,WNW,292,0.0,0.0,43,0.00,,,0.00,,2013-02-20 06:01:00,
2013-02-19 23:11:00,32.0,12.0,29.92,WNW,292,0.0,0.0,43,0.00,,,0.00,,2013-02-20 06:11:00,
2013-02-19 23:21:00,32.0,12.0,29.92,West,268,1.0,4.0,43,0.00,,,0.00,,2013-02-20 06:21:00,
2013-02-19 23:32:00,32.0,12.0,29.91,West,268,0.0,2.0,43,0.00,,,0.00,,2013-02-20 06:32:00,
2013-02-19 23:42:00,32.0,12.0,29.91,West,268,0.0,2.0,43,0.00,,,0.00,,2013-02-20 06:42:00,
2013-02-19 23:51:00,32.0,13.0,29.91,NW,319,0.0,3.0,44,0.00,,,0.00,,2013-02-20 06:51:00,